Wind_Speed
9 13 15 12 12 14 14 17 19 20 18 23 27 23 24 24 23 23 20 15 14 20 22 26 22 36 39 37 38 40 38 36 33 31 34 36 37 34 35 36 38 37 36 36
17 14 13 17 18 12 16 18 22 22 21 27 32 24 27 26 26 26 22 22 22 27 30 30 29 35 38 38 36 31 34 34 32 29 34 35 35 38 40 40 40 39 39 39
21 20 17 17 17 22 19 20 25 28 27 29 26 28 25 26 27 26 27 27 28 32 34 36 37 37 41 38 34 35 35 24 32 34 33 36 40 41 47 49 47 46 44 44
22 21 23 19 25 27 26 30 32 34 33 32 29 32 25 32 35 35 33 31 32 35 37 38 38 40 39 34 31 30 29 27 27 32 33 33 33 34 32 38 44 48 50 51
24 23 26 28 26 26 29 32 32 31 32 34 30 30 33 39 40 37 36 35 35 37 38 37 36 35 34 34 33 34 36 35 33 33 36 36 37 38 36 35 36 40 44 45
29 30 31 31 30 34 34 34 34 34 33 30 35 38 38 39 39 38 36 34 33 32 33 36 37 36 35 34 35 36 35 33 33 32 33 29 33 35 36 39 42 45 46 46
33 34 35 37 38 41 41 39 39 37 37 38 33 37 35 37 39 39 38 36 33 31 31 31 30 32 33 34 34 34 36 38 37 35 32 34 37 43 46 44 47 43 45 44
36 37 38 38 37 37 39 40 38 39 37 35 42 42 39 40 43 41 39 39 37 34 33 29 29 31 34 36 36 34 31 32 33 37 40 39 39 41 44 47 43 42 42 44
38 37 37 37 37 40 40 39 39 35 40 38 38 39 42 45 47 47 46 42 39 37 34 34 33 33 35 32 31 32 31 33 33 34 36 38 42 44 46 48 45 44 47 49
42 42 40 39 43 40 39 44 44 43 43 41 39 40 41 45 46 46 44 41 38 38 39 40 41 39 37 33 33 35 34 36 39 39 40 43 44 48 50 51 48 46 48 56
44 43 47 48 51 49 49 48 50 50 46 43 43 44 44 42 40 41 41 40 41 42 42 42 41 39 37 35 35 37 36 37 40 43 45 48 50 52 51 51 54 53 50 53
45 48 49 50 48 50 48 55 54 52 51 51 51 50 44 40 38 40 40 42 42 42 43 43 40 40 40 39 39 41 42 41 44 46 47 48 47 49 53 56 54 49 49 59
49 50 54 54 54 54 57 56 57 57 56 55 50 48 44 40 40 40 41 43 43 43 45 44 43 43 43 42 43 44 46 46 46 49 51 49 47 46 52 55 54 51 42 63
51 52 55 58 56 57 56 56 57 57 55 51 50 45 44 43 42 44 46 46 47 47 46 47 48 47 48 45 46 47 47 46 48 50 53 50 51 47 52 57 40 44 50 60
47 49 52 56 59 58 58 58 55 53 51 47 45 43 43 44 46 50 51 51 52 50 49 48 49 50 51 50 48 49 48 49 52 50 55 52 51 56 51 47 40 55 60 66
52 54 54 56 56 54 55 58 53 51 47 43 41 42 43 46 50 53 54 55 55 53 51 50 50 51 51 52 51 52 54 55 55 53 51 54 55 52 49 46 42 58 53 58
51 51 50 50 51 49 52 48 46 43 44 44 44 45 45 48 50 52 55 56 55 55 54 52 52 53 55 55 56 57 59 58 58 56 54 56 57 55 53 47 36 47 68 61
49 49 48 44 46 40 44 48 45 41 42 44 47 48 48 49 50 53 56 58 60 60 59 58 60 62 63 62 62 63 63 62 60 59 58 58 58 53 47 45 38 31 37 67
50 48 46 43 41 38 42 47 47 46 43 47 48 47 49 52 54 59 62 64 66 67 66 66 67 68 68 67 66 65 64 64 64 62 62 63 58 50 43 43 36 33 30 42
49 46 43 41 40 39 42 45 46 47 43 49 52 55 57 59 61 65 66 69 70 71 71 71 73 72 72 72 70 70 70 69 69 68 64 60 54 48 41 40 36 34 34 41
46 45 44 42 42 43 42 43 45 48 48 51 53 55 58 63 67 71 76 78 80 81 81 81 82 80 79 78 76 73 72 69 66 65 60 53 49 44 41 37 36 35 31 30
45 46 47 47 47 46 48 50 52 52 52 56 60 65 69 72 77 81 85 85 83 82 81 80 82 80 79 76 75 70 68 64 59 58 52 47 43 41 41 37 36 33 35 29
47 49 49 50 51 54 54 55 57 60 62 65 69 74 78 84 81 79 79 80 80 82 82 80 81 81 77 73 73 69 63 61 56 52 47 44 38 38 40 37 35 34 37 36
51 56 57 58 60 58 59 60 63 67 71 75 79 82 81 77 77 76 78 77 79 81 79 80 84 84 78 74 73 69 62 58 54 47 41 37 31 35 25 31 31 36 35 36
57 59 59 61 64 63 65 68 70 73 78 83 82 80 78 76 80 79 80 80 87 81 69 64 69 72 67 61 63 63 63 51 46 40 35 30 28 30 29 30 24 25 30 31
61 59 62 62 67 69 72 77 82 83 83 78 79 74 76 79 78 82 85 82 71 70 69 69 74 72 73 71 63 59 58 47 39 33 31 27 26 26 28 22 20 24 28 31
Wind_Direction
250 246 258 270 282 308 323 321 307 311 312 313 328 326 325 322 322 316 314 288 273 279 291 284 275 287 292 296 300 305 303 299 297 285 281 278 273 267 266 265 269 270 272 271
254 268 255 251 256 294 311 313 320 318 305 308 316 319 322 319 316 308 300 294 294 291 290 291 286 287 294 297 296 298 289 292 278 274 275 271 271 274 272 265 268 271 271 271
250 252 256 254 271 291 298 299 307 318 313 310 315 324 318 324 323 316 308 297 289 292 295 295 293 289 290 294 295 293 287 287 278 284 279 271 271 272 271 268 270 270 270 273
253 259 257 263 278 294 295 297 304 310 308 312 306 306 307 317 315 313 310 307 303 299 297 295 291 288 290 294 293 291 288 287 280 284 281 278 275 275 286 283 275 272 272 274
242 261 276 283 291 289 291 295 299 303 305 304 300 303 304 308 308 309 310 309 306 303 300 297 300 303 302 301 301 299 296 295 290 285 276 275 278 277 271 280 284 283 279 277
255 261 264 268 271 275 284 290 293 294 294 298 300 300 305 304 303 305 307 306 302 297 303 302 299 298 297 297 295 292 289 291 290 290 289 285 272 266 272 272 276 280 281 284
258 262 268 273 278 284 284 286 287 290 292 296 297 303 302 301 302 304 304 300 295 284 280 278 281 284 288 291 293 295 295 296 294 293 291 284 279 276 286 281 275 281 279 275
272 275 278 281 283 283 285 284 286 289 293 289 297 302 304 304 301 300 297 296 291 284 281 285 284 289 296 294 292 288 289 291 294 294 293 293 287 280 279 278 281 280 278 281
276 278 281 282 285 288 278 285 291 291 298 295 295 300 302 301 298 297 296 293 288 289 295 293 292 290 285 283 287 291 292 296 295 295 297 296 292 288 288 288 281 277 276 270
272 273 277 276 291 294 293 296 296 295 294 294 294 295 297 295 296 295 293 293 295 295 292 287 283 282 285 291 296 298 300 296 295 295 291 290 291 290 286 288 285 274 275 264
272 274 280 281 287 290 291 295 296 298 298 297 297 296 296 293 293 289 289 290 290 287 285 286 289 291 290 294 291 290 292 294 294 295 295 292 296 293 285 285 279 276 260 258
268 268 274 279 282 285 288 297 297 296 296 297 297 295 295 292 285 281 283 284 284 284 285 284 287 288 288 287 286 288 290 293 297 301 298 297 295 295 291 283 276 273 263 263
275 278 280 282 281 284 292 293 293 294 296 295 294 294 296 292 287 284 281 283 284 283 283 284 284 285 284 284 285 289 295 300 302 303 301 304 302 302 305 296 272 248 246 261
275 277 279 283 283 283 283 286 287 290 291 292 295 297 294 291 289 287 287 287 286 284 284 284 284 285 285 287 290 292 294 296 302 308 306 306 307 303 316 311 256 226 232 237
270 273 275 278 282 285 286 285 287 288 290 294 294 294 290 290 289 288 288 289 290 290 287 286 287 288 289 290 290 292 295 299 307 311 307 309 310 309 319 318 247 232 232 233
279 281 281 282 283 284 284 285 287 289 291 291 290 287 288 287 287 288 289 289 290 291 292 293 292 292 292 291 293 297 301 305 306 309 309 311 313 317 320 318 255 230 241 245
276 278 279 279 279 281 282 285 286 287 289 290 289 286 286 286 286 287 288 290 291 290 291 292 292 293 293 295 299 299 300 302 305 308 309 311 313 317 317 318 313 253 240 246
282 283 284 282 284 288 289 287 288 290 292 292 289 289 290 288 289 290 291 292 293 293 295 297 298 296 295 296 296 298 300 302 304 305 307 310 312 314 313 311 310 292 258 238
281 281 281 283 284 284 282 285 291 293 293 291 290 291 292 293 294 293 293 293 292 292 293 293 292 292 293 294 296 298 299 300 301 303 305 308 310 309 304 304 298 297 262 249
280 282 281 281 283 281 280 285 290 294 297 295 296 297 296 296 294 292 292 292 293 294 294 293 292 293 293 294 294 294 295 297 298 300 302 304 304 303 299 297 290 291 270 251
281 279 281 282 282 283 284 285 287 290 291 290 291 291 292 292 293 293 294 294 292 292 292 292 291 291 290 290 291 292 293 294 295 296 299 300 298 295 299 291 285 280 281 268
277 283 287 288 289 290 291 291 291 290 290 290 290 291 292 293 293 293 293 293 292 293 292 289 288 288 287 288 288 288 289 290 291 293 295 295 292 291 295 289 283 269 274 275
285 286 286 287 290 291 292 292 292 291 290 291 293 294 295 297 296 294 294 292 291 288 288 288 287 286 285 285 284 283 283 284 285 289 289 290 287 287 293 287 279 264 265 271
285 287 290 292 293 294 291 291 291 293 294 295 296 296 296 295 294 294 294 293 291 290 288 287 286 282 280 280 279 278 278 279 280 281 281 284 281 287 290 299 276 257 256 266
283 286 291 292 291 291 292 292 292 294 296 298 298 298 299 299 299 301 299 297 298 295 291 292 288 282 280 279 275 271 268 272 278 273 273 273 273 277 281 293 266 257 257 267
285 289 290 290 290 291 292 294 296 297 299 298 299 299 300 302 303 303 302 303 303 301 295 292 291 286 281 282 272 263 256 256 265 264 264 269 279 277 287 282 260 261 259 263
Height
11030 11031 11031 11032 11033 11034 11034 11033 11031 11030 11030 11029 11028 11027 11025 11022 11019 11018 11016 11015 11015 11014 11013 11009 11005 11001 11001 11000 10995 10991 10988 10985 10985 10983 10980 10978 10977 10978 10979 10977 10974 10973 10974 10974
11028 11030 11031 11032 11034 11034 11033 11032 11030 11028 11028 11027 11024 11023 11020 11017 11017 11014 11013 11012 11011 11009 11007 11005 11002 10997 10993 10991 10991 10989 10985 10981 10977 10975 10973 10971 10970 10968 10967 10967 10968 10966 10966 10966
11029 11030 11029 11029 11029 11029 11029 11028 11028 11026 11025 11023 11020 11019 11017 11014 11012 11011 11009 11008 11006 11003 10999 10997 10994 10991 10987 10984 10982 10980 10979 10976 10972 10969 10968 10967 10966 10963 10960 10958 10957 10958 10957 10957
11024 11024 11024 11027 11027 11027 11025 11024 11025 11024 11020 11019 11018 11016 11013 11011 11009 11006 11004 11002 10999 10994 10991 10988 10985 10983 10980 10977 10975 10973 10971 10969 10966 10963 10961 10959 10957 10954 10951 10949 10948 10947 10946 10945
11025 11025 11024 11025 11025 11023 11023 11022 11024 11021 11018 11015 11014 11011 11010 11008 11004 11000 10997 10994 10991 10983 10980 10978 10975 10973 10970 10968 10965 10963 10960 10958 10957 10955 10953 10951 10948 10945 10943 10941 10939 10937 10934 10933
11022 11023 11022 11024 11023 11020 11022 11021 11018 11018 11016 11011 11009 11008 11006 11002 10998 10994 10993 10990 10987 10981 10973 10970 10968 10966 10963 10961 10959 10955 10953 10950 10949 10946 10943 10940 10937 10936 10935 10934 10932 10929 10924 10922
11016 11015 11016 11017 11018 11015 11014 11015 11015 11013 11011 11010 11006 11001 11000 10995 10990 10989 10985 10984 10982 10979 10977 10973 10968 10962 10958 10955 10952 10949 10945 10941 10938 10935 10934 10932 10930 10927 10924 10923 10922 10918 10914 10913
11008 11008 11007 11008 11009 11009 11006 11005 11006 11005 11005 11003 10998 10994 10991 10987 10982 10981 10979 10975 10973 10971 10969 10965 10963 10957 10951 10948 10945 10943 10939 10935 10929 10926 10924 10921 10919 10916 10913 10910 10907 10906 10904 10902
11000 10999 11000 11001 11002 11000 11000 10996 10997 10998 10996 10997 10994 10988 10984 10979 10973 10971 10970 10967 10963 10959 10955 10953 10951 10949 10945 10942 10938 10934 10931 10926 10922 10920 10915 10912 10907 10903 10899 10895 10893 10892 10889 10886
10996 10993 10994 10993 10992 10992 10990 10988 10987 10988 10987 10987 10985 10983 10980 10972 10963 10957 10955 10952 10949 10947 10945 10943 10941 10939 10936 10932 10927 10922 10920 10917 10912 10909 10905 10899 10895 10892 10886 10879 10877 10877 10872 10867
10990 10987 10985 10986 10984 10983 10981 10979 10977 10975 10975 10976 10976 10973 10969 10961 10955 10949 10946 10943 10941 10939 10936 10933 10930 10926 10924 10921 10917 10914 10912 10908 10903 10897 10891 10886 10882 10877 10870 10864 10862 10861 10857 10851
10981 10978 10979 10979 10977 10974 10971 10970 10966 10963 10963 10963 10963 10961 10961 10955 10949 10943 10938 10935 10932 10929 10926 10924 10920 10916 10914 10911 10907 10903 10900 10896 10890 10883 10877 10873 10869 10861 10852 10844 10841 10836 10837 10834
10974 10971 10966 10968 10968 10966 10963 10960 10954 10952 10952 10951 10948 10943 10942 10940 10935 10932 10928 10924 10921 10919 10916 10912 10909 10906 10903 10900 10896 10891 10886 10881 10875 10868 10862 10857 10851 10844 10833 10822 10817 10818 10823 10814
10966 10963 10959 10954 10956 10956 10954 10952 10946 10944 10941 10939 10935 10934 10929 10925 10922 10917 10914 10910 10908 10906 10904 10899 10895 10892 10888 10885 10882 10877 10874 10870 10862 10855 10848 10842 10834 10829 10818 10800 10791 10795 10800 10799
10959 10957 10953 10947 10943 10942 10939 10935 10937 10935 10930 10929 10926 10922 10916 10913 10909 10903 10898 10895 10892 10890 10888 10885 10880 10875 10872 10870 10867 10863 10859 10854 10849 10842 10834 10828 10821 10813 10805 10791 10780 10784 10782 10780
10945 10943 10942 10935 10932 10929 10925 10923 10924 10921 10920 10919 10916 10912 10907 10901 10895 10889 10884 10879 10877 10874 10872 10869 10865 10861 10856 10852 10850 10846 10841 10839 10834 10828 10820 10812 10806 10799 10791 10783 10774 10771 10771 10772
10934 10932 10928 10924 10923 10922 10913 10913 10913 10912 10907 10905 10902 10897 10894 10889 10884 10878 10872 10867 10864 10860 10858 10855 10851 10846 10841 10837 10834 10831 10827 10823 10818 10814 10808 10799 10793 10785 10777 10769 10761 10758 10761 10762
10921 10918 10917 10915 10910 10911 10902 10897 10900 10901 10898 10893 10888 10884 10882 10878 10873 10866 10859 10854 10849 10845 10842 10839 10834 10828 10824 10823 10820 10815 10811 10808 10803 10798 10793 10787 10781 10774 10765 10758 10752 10747 10748 10753
10909 10907 10906 10904 10902 10902 10894 10889 10887 10887 10889 10880 10877 10875 10869 10865 10860 10853 10847 10841 10836 10831 10828 10824 10819 10813 10809 10806 10804 10799 10796 10792 10787 10784 10778 10771 10767 10762 10755 10748 10743 10739 10737 10738
10895 10894 10893 10893 10892 10890 10884 10881 10878 10876 10878 10869 10864 10859 10854 10849 10844 10836 10831 10826 10820 10816 10811 10806 10801 10797 10793 10789 10787 10783 10779 10776 10770 10766 10763 10758 10752 10748 10745 10738 10732 10730 10727 10726
10882 10882 10882 10881 10881 10878 10877 10875 10871 10867 10863 10857 10851 10846 10841 10835 10827 10820 10812 10807 10801 10795 10791 10786 10779 10776 10772 10767 10766 10764 10760 10759 10753 10749 10747 10744 10739 10734 10731 10727 10724 10720 10718 10716
10872 10869 10867 10866 10866 10867 10863 10860 10856 10852 10848 10842 10835 10828 10823 10818 10811 10803 10794 10786 10779 10774 10768 10763 10755 10753 10750 10748 10744 10744 10741 10740 10739 10734 10733 10730 10725 10721 10717 10714 10712 10711 10709 10708
10861 10858 10857 10856 10856 10852 10850 10845 10840 10834 10830 10824 10818 10810 10803 10796 10787 10780 10773 10765 10759 10750 10744 10740 10732 10727 10727 10726 10721 10721 10722 10721 10722 10721 10719 10716 10713 10710 10706 10701 10698 10698 10698 10697
10850 10843 10844 10842 10839 10837 10833 10828 10823 10817 10812 10804 10797 10790 10781 10773 10766 10758 10750 10743 10735 10727 10722 10716 10708 10701 10704 10705 10700 10698 10701 10703 10705 10706 10705 10703 10701 10699 10695 10691 10687 10686 10688 10687
10835 10833 10832 10827 10820 10818 10813 10809 10805 10800 10791 10783 10773 10765 10758 10750 10742 10734 10726 10717 10708 10699 10690 10684 10676 10670 10673 10676 10673 10676 10680 10686 10689 10690 10691 10691 10689 10688 10685 10682 10678 10678 10679 10679
10822 10821 10816 10812 10803 10801 10796 10788 10780 10776 10769 10762 10754 10746 10737 10729 10721 10711 10701 10690 10680 10673 10666 10660 10653 10649 10645 10643 10642 10650 10657 10668 10675 10678 10679 10680 10680 10678 10676 10672 10671 10671 10672 10672